Weather History for Mobile Downtown, AL

Change the Weather History Date:

Monday, July 22, 2013

  Actual Average Record
Temperature  
Mean Temperature 78 °F -  
Max Temperature 86 °F 87 °F 93 °F (1996)
Min Temperature 73 °F 72 °F 71 °F (2000)
Cooling Degree Days 14    
Growing Degree Days 28 (Base 50)    
Moisture  
Dew Point 73 °F    
Average Humidity 89    
Maximum Humidity 97    
Minimum Humidity 77    
Precipitation  
Precipitation 1.09 in - - ()
Sea Level Pressure  
Sea Level Pressure 30.06 in    
Wind  
Wind Speed 3 mph (WSW)    
Max Wind Speed 16 mph    
Max Gust Speed 31 mph    
Visibility 8 miles    
Events Rain , Thunderstorm    
Averages and records for this station are not official NWS values.
T = Trace of Precipitation, MM = Missing Value Source: NWS Daily Summary

Daily Weather History Graph

Daily Weather History Graph

Search for Another Location

Airport:

Trip Planner

Search our weather history database for the weather conditions in past years. The results will help you decide how hot, cold, wet, or windy it might be!

Date:

Astronomy

Jul. 22, 2013 Rise Set
Actual Time 6:04 AM CDT 7:52 PM CDT
Civil Twilight 5:37 AM CDT 8:19 PM CDT
Nautical Twilight 5:05 AM CDT 8:51 PM CDT
Astronomical Twilight 4:31 AM CDT 9:25 PM CDT
Moon 7:45 PM CDT (7/22) 5:55 AM CDT (7/22)
Length of Visible Light 14h 42m
Length of Day
13h 48m
Full, 100% of the Moon is Illuminated
Jul 22
Full
Jul 22
Full
Jul 29
Last Quarter
Aug 6
New
Aug 14
First Quarter

Hourly Weather History & Observations

Time (CDT) Temp. Heat Index Dew Point Humidity Pressure Visibility Wind Dir Wind Speed Gust Speed Precip Events Conditions
12:53 AM 78.1 °F - 73.0 °F 84% 30.06 in 10.0 mi Calm Calm - N/A   Clear
1:53 AM 78.1 °F - 73.9 °F 87% 30.05 in 10.0 mi Calm Calm - N/A   Clear
2:53 AM 77.0 °F - 73.9 °F 90% 30.04 in 10.0 mi Calm Calm - N/A   Clear
3:53 AM 77.0 °F - 73.9 °F 90% 30.04 in 10.0 mi Calm Calm - N/A   Mostly Cloudy
4:53 AM 77.0 °F - 73.9 °F 90% 30.04 in 10.0 mi Calm Calm - N/A   Overcast
5:53 AM 75.9 °F - 71.1 °F 85% 30.06 in 10.0 mi SW 6.9 mph 16.1 mph 0.00 in Rain Light Rain
6:53 AM 75.9 °F - 71.1 °F 85% 30.06 in 10.0 mi Calm Calm - 0.00 in   Clear
7:53 AM 78.1 °F - 73.9 °F 87% 30.07 in 10.0 mi WSW 4.6 mph - N/A   Clear
8:53 AM 81.0 °F 87.3 °F 75.9 °F 85% 30.09 in 10.0 mi Calm Calm - N/A   Mostly Cloudy
9:53 AM 84.9 °F 95.3 °F 77.0 °F 77% 30.07 in 10.0 mi SSW 8.1 mph - N/A   Mostly Cloudy
10:09 AM 80.6 °F 85.4 °F 73.4 °F 79% 30.09 in 5.0 mi WSW 16.1 mph 27.6 mph 0.11 in Rain , Thunderstorm Thunderstorms and Rain
10:33 AM 75.2 °F - 73.4 °F 94% 30.08 in 5.0 mi Calm Calm - 0.41 in Rain , Thunderstorm Thunderstorms and Rain
10:53 AM 75.0 °F - 72.0 °F 90% 30.10 in 5.0 mi SW 11.5 mph 24.2 mph 0.41 in Rain , Thunderstorm Thunderstorms and Rain
11:53 AM 77.0 °F - 73.9 °F 90% 30.08 in 10.0 mi WSW 8.1 mph - 0.09 in   Mostly Cloudy
12:53 PM 80.1 °F 84.5 °F 73.9 °F 81% 30.08 in 10.0 mi Variable 6.9 mph - 0.00 in   Mostly Cloudy
1:53 PM 80.1 °F 85.4 °F 75.9 °F 87% 30.06 in 10.0 mi Calm Calm - 0.00 in Rain Light Rain
2:53 PM 81.0 °F 88.6 °F 78.1 °F 91% 30.05 in 10.0 mi Calm Calm - 0.01 in   Scattered Clouds
3:53 PM 84.0 °F 94.8 °F 78.1 °F 82% 30.05 in 10.0 mi Variable 3.5 mph - N/A   Scattered Clouds
4:08 PM 84.2 °F 96.1 °F 78.8 °F 84% 30.05 in 10.0 mi Calm Calm - N/A Thunderstorm Thunderstorm
4:22 PM 75.2 °F - 71.6 °F 89% 30.06 in 1.5 mi WSW 15.0 mph 31.1 mph 0.12 in Rain , Thunderstorm Heavy Thunderstorms and Rain
4:27 PM 73.4 °F - 69.8 °F 88% 30.05 in 0.8 mi SW 15.0 mph 31.1 mph 0.24 in Rain , Thunderstorm Heavy Thunderstorms and Rain
4:31 PM 73.4 °F - 69.8 °F 88% 30.05 in 1.0 mi SW 9.2 mph 26.5 mph 0.27 in Rain , Thunderstorm Heavy Thunderstorms and Rain
4:43 PM 73.4 °F - 69.8 °F 88% 30.04 in 3.0 mi West 5.8 mph - 0.32 in Rain , Thunderstorm Light Thunderstorms and Rain
4:53 PM 73.0 °F - 71.1 °F 93% 30.04 in 10.0 mi West 3.5 mph - 0.32 in Rain , Thunderstorm Light Thunderstorms and Rain
5:32 PM 75.2 °F - 73.4 °F 94% 30.03 in 10.0 mi Calm Calm - 0.01 in   Mostly Cloudy
5:53 PM 75.0 °F - 73.0 °F 94% 30.04 in 10.0 mi Calm Calm - 0.01 in Thunderstorm Thunderstorm
6:15 PM 73.4 °F - 71.6 °F 94% 30.05 in 3.0 mi WNW 9.2 mph 27.6 mph 0.19 in Rain , Thunderstorm Heavy Thunderstorms and Rain
6:53 PM 73.0 °F - 71.1 °F 93% 30.05 in 6.0 mi Calm Calm - 0.22 in Rain , Thunderstorm Light Thunderstorms and Rain
7:53 PM 73.9 °F - 73.0 °F 97% 30.06 in 10.0 mi Calm Calm - 0.01 in   Scattered Clouds
8:53 PM 73.0 °F - 72.0 °F 96% 30.07 in 10.0 mi Calm Calm - 0.02 in Rain Light Rain
9:53 PM 73.9 °F - 72.0 °F 93% 30.08 in 10.0 mi Calm Calm - 0.00 in   Clear
10:53 PM 73.9 °F - 72.0 °F 93% 30.06 in 10.0 mi Calm Calm - N/A   Clear
11:53 PM 73.9 °F - 72.0 °F 93% 30.04 in 10.0 mi Calm Calm - N/A   Partly Cloudy